Location: Kergonan
(48.2337°N, 4.5518°W)
Time: 16:54:59
(UTC+00:00)

Cosmos 1908 - Pass Details

Date: 18 January 2020
Orbit: 511 x 532 km, 82.5° (Epoch: 20 February)

Event Time Altitude Azimuth Distance (km) Brightness Sun altitude
Rises 06:59:20 0° 194° (SSW) 2,663 6.9 -10.3°
Reaches altitude 10° 07:01:29 10° 197° (SSW) 1,779 6.0 -10.0°
Maximum altitude 07:05:23 67° 281° (W) 582 3.2 -9.4°
Drops below altitude 10° 07:09:18 10° 5° (N) 1,793 5.8 -8.8°
Sets 07:11:28 0° 8° (N) 2,687 6.7 -8.4°
